User: anonymous   Login
Location: Newark
(13.8117°N, 3.6025°W)
Time: 22:33:36
(UTC+00:00)
Language:

Hubble Space Telescope - Orbit

View from above orbital plane
View from above orbital plane
View from above satellite
View from above satellite

Ground track
Ground track

The orbit data is extracted from the following two-line orbital elements,

1 20580U 90037B   19261.46969734  .00000396  00000-0  13167-4 0  9991
2 20580  28.4702 325.0440 0002867  36.7072  54.9988 15.09267255414763
Epoch (UTC): 18 September 2019 11:16:21
Eccentricity: 0.0002867
inclination: 28.4702°
perigee height: 536 km
apogee height: 540 km
right ascension of ascending node: 325.0440°
argument of perigee: 36.7072°
revolutions per day: 15.09267255
mean anomaly at epoch: 54.9988°
orbit number at epoch: 41476

The dashed part of the orbit path shows where the satellite is in the earth's shadow,  

DLR